Hourly Data Report for September 16, 2017

All times are specified in Local Standard Time (LST). Add 1 hour to adjust for Daylight Saving Time where and when it is observed.

MONCTON INTL A
NEW BRUNSWICK

46°06'44.000" N
64°40'43.000" W
70.70 m
8103201
71705
YQM

Download Data

Hourly Data (September 2017)
Hourly Data Report for September 16, 2017
Temp Definition
°C
Dew Point Temp Definition
°C
Rel Hum Definition
%
Wind Dir Definition
10's deg

Wind Spd Definition
km/h
Visibility Definition
km
Stn Press Definition
kPa
Hmdx Definition


Wind Chill Definition


Weather Definition


TIME
00:00 Legend Double Dagger 13.1 10.4 84 16 7 24.1 101.14     LegendNANA
01:00 Legend Double Dagger 12.3 9.7 84 36 3 24.1 101.13     LegendNANA
02:00 Legend Double Dagger 11.9 10.6 92 20 10 24.1 101.10     Clear
03:00 Legend Double Dagger 12.2 11.3 94 22 13 1.6 101.09     Fog
04:00 Legend Double Dagger 13.2 12.9 98 21 9 0.8 101.09     Fog
05:00 Legend Double Dagger 14.4 14.1 99 21 13 1.2 101.10     Fog
06:00 Legend Double Dagger 15.2 15.0 99 23 14 0.4 101.10     Fog
07:00 Legend Double Dagger 16.1 15.9 99 23 14 1.2 101.08     Fog
08:00 Legend Double Dagger 17.0 16.7 98 25 23 4.8 101.14     Fog
09:00 Legend Double Dagger 17.7 16.7 94 23 20 16.1 101.15     LegendNANA
10:00 Legend Double Dagger 19.3 17.0 86 24 18 24.1 101.13     LegendNANA
11:00 Legend Double Dagger 21.1 17.2 78 24 22 24.1 101.04 27   Clear
12:00 Legend Double Dagger 22.8 17.5 71 22 14 24.1 101.02 28   LegendNANA
13:00 Legend Double Dagger 24.5 17.5 65 24 19 24.1 101.00 30   LegendNANA
14:00 Legend Double Dagger 25.6 18.1 63 23 13 24.1 100.96 32   Clear
15:00 Legend Double Dagger 26.1 18.3 62 22 17 24.1 100.96 32   LegendNANA
16:00 Legend Double Dagger 26.7 16.6 53 26 14 24.1 100.97 32   LegendNANA
17:00 Legend Double Dagger 18.9 15.8 82 2 25 24.1 101.05     Mainly Clear
18:00 Legend Double Dagger 16.1 13.4 84 4 24 24.1 101.14     LegendNANA
19:00 Legend Double Dagger 15.5 12.8 84 3 22 24.1 101.26     LegendNANA
20:00 Legend Double Dagger 15.0 12.0 82 4 14 24.1 101.33     Mostly Cloudy
21:00 Legend Double Dagger 14.4 11.9 85 5 13 24.1 101.30     LegendNANA
22:00 Legend Double Dagger 13.9 11.7 86 5 8 24.1 101.35     LegendNANA
23:00 Legend Double Dagger 13.5 11.6 88 8 5 24.1 101.35     Mostly Cloudy

Notes on Data Quality.

Legend

  • E = Estimated
  • M = Missing
  • NA = Not Available
  • ‡ = Partner data that is not subject to review by the National Climate Archives
Date modified: